K7SFN Weather Reports


Display with metric or nautical units.
time (UTC)temp
F
wind
direction
speed
MPH
gust
MPH
rain 1hr
in
rain 24hr
in
rain mn
in
humidity
%
barometer
mb
20260510234005 83 288 6.0 20.0 0.00 0.00 0.00 18 1017.3
20260510233504 83 291 7.0 13.0 0.00 0.00 0.00 17 1017.3
20260510233005 83 286 7.0 13.0 0.00 0.00 0.00 18 1017.3
20260510232505 84 281 8.0 13.0 0.00 0.00 0.00 17 1017.3
20260510232005 84 287 7.0 15.0 0.00 0.00 0.00 16 1017.3
20260510231504 84 291 8.0 13.0 0.00 0.00 0.00 16 1017.3
20260510230504 84 296 7.0 12.0 0.00 0.00 0.00 16 1017.3
20260510225505 84 294 7.0 12.0 0.00 0.00 0.00 16 1017.4
20260510225005 84 300 6.0 17.0 0.00 0.00 0.00 17 1017.3
20260510224504 84 281 7.0 15.0 0.00 0.00 0.00 18 1017.4
20260510223504 85 295 6.0 16.0 0.00 0.00 0.00 17 1017.5
20260510223005 85 281 6.0 12.0 0.00 0.00 0.00 17 1017.6
20260510222505 85 295 6.0 9.0 0.00 0.00 0.00 18 1017.7
20260510222005 85 294 6.0 13.0 0.00 0.00 0.00 16 1017.8
20260510221504 85 296 7.0 16.0 0.00 0.00 0.00 16 1017.9
20260510220505 85 284 6.0 13.0 0.00 0.00 0.00 16 1018.0
20260510220005 85 288 7.0 13.0 0.00 0.00 0.00 17 1018.0
20260510215505 85 280 7.0 18.0 0.00 0.00 0.00 17 1018.1
20260510215005 85 299 7.0 16.0 0.00 0.00 0.00 18 1018.1
20260510214504 85 306 6.0 15.0 0.00 0.00 0.00 18 1018.2
20260510214005 85 303 6.0 14.0 0.00 0.00 0.00 18 1018.2
20260510213504 85 297 6.0 14.0 0.00 0.00 0.00 16 1018.2
20260510213005 85 300 7.0 14.0 0.00 0.00 0.00 16 1018.4
20260510212505 86 304 8.0 13.0 0.00 0.00 0.00 16 1018.4
20260510212005 86 302 6.0 15.0 0.00 0.00 0.00 17 1018.4
20260510211504 86 288 7.0 12.0 0.00 0.00 0.00 15 1018.4
20260510211005 86 349 5.0 13.0 0.00 0.00 0.00 15 1018.4
20260510210505 86 296 6.0 15.0 0.00 0.00 0.00 15 1018.4
20260510210005 86 277 5.0 10.0 0.00 0.00 0.00 15 1018.5
20260510205505 86 283 6.0 14.0 0.00 0.00 0.00 12 1018.5
20260510205005 86 292 5.0 12.0 0.00 0.00 0.00 14 1018.5
20260510204504 86 300 5.0 10.0 0.00 0.00 0.00 14 1018.6
20260510204004 86 276 3.0 7.0 0.00 0.00 0.00 14 1018.5
20260510203505 86 232 2.0 6.0 0.00 0.00 0.00 14 1018.6
20260510203005 85 237 2.0 6.0 0.00 0.00 0.00 12 1018.6
20260510202505 85 155 3.0 6.0 0.00 0.00 0.00 13 1018.6
20260510201504 84 316 2.0 6.0 0.00 0.00 0.00 13 1018.6
20260510201004 84 34 3.0 6.0 0.00 0.00 0.00 14 1018.6
20260510200505 84 281 2.0 5.0 0.00 0.00 0.00 14 1018.6
20260510200005 84 274 3.0 7.0 0.00 0.00 0.00 13 1018.7
20260510195505 84 315 0.0 5.0 0.00 0.00 0.00 14 1018.7
20260510195005 84 275 2.0 7.0 0.00 0.00 0.00 14 1018.8
20260510194505 84 188 3.0 6.0 0.00 0.00 0.00 14 1018.9
20260510194006 84 258 2.0 6.0 0.00 0.00 0.00 12 1019.0
20260510193504 84 277 2.0 9.0 0.00 0.00 0.00 12 1019.0
20260510193005 83 244 3.0 7.0 0.00 0.00 0.00 13 1019.0
20260510192505 83 257 3.0 7.0 0.00 0.00 0.00 13 1019.0
20260510192005 82 265 3.0 7.0 0.00 0.00 0.00 13 1019.0
20260510191505 82 285 3.0 9.0 0.00 0.00 0.00 14 1019.1
20260510190005 80 284 3.0 7.0 0.00 0.00 0.00 14 1019.2
20260510185505 80 296 3.0 8.0 0.00 0.00 0.00 13 1019.3
20260510185005 80 314 1.0 6.0 0.00 0.00 0.00 14 1019.3
20260510184505 79 297 3.0 7.0 0.00 0.00 0.00 16 1019.3
20260510184005 79 281 3.0 9.0 0.00 0.00 0.00 18 1019.3
20260510183504 78 315 2.0 8.0 0.00 0.00 0.00 15 1019.3
20260510183005 78 313 2.0 8.0 0.00 0.00 0.00 16 1019.4
20260510182505 77 321 2.0 5.0 0.00 0.00 0.00 17 1019.4
20260510182005 77 290 2.0 7.0 0.00 0.00 0.00 18 1019.4
20260510181004 76 315 1.0 5.0 0.00 0.00 0.00 19 1019.6
20260510180505 76 307 2.0 5.0 0.00 0.00 0.00 21 1019.6
20260510180006 75 298 0.0 0.0 0.00 0.00 0.00 21 1019.7
20260510175505 74 298 0.0 0.0 0.00 0.00 0.00 23 1019.7
20260510175005 74 300 2.0 5.0 0.00 0.00 0.00 21 1019.7
20260510174004 73 306 0.0 5.0 0.00 0.00 0.00 24 1019.8
20260510173504 73 273 1.0 3.0 0.00 0.00 0.00 23 1019.8
20260510173005 72 303 0.0 5.0 0.00 0.00 0.00 24 1019.8
20260510172504 73 277 1.0 2.0 0.00 0.00 0.00 24 1019.9
20260510172005 72 264 0.0 2.0 0.00 0.00 0.00 25 1019.9
20260510171504 72 291 0.0 5.0 0.00 0.00 0.00 26 1019.9
20260510171004 71 240 2.0 7.0 0.00 0.00 0.00 26 1019.9
20260510164005 69 298 0.0 0.0 0.00 0.00 0.00 26 1019.9
20260510163506 68 298 0.0 0.0 0.00 0.00 0.00 28 1019.9
20260510163005 68 298 0.0 0.0 0.00 0.00 0.00 31 1019.9
20260510162505 68 298 0.0 0.0 0.00 0.00 0.00 31 1019.9
20260510162005 67 298 0.0 0.0 0.00 0.00 0.00 32 1019.9
20260510161504 67 298 0.0 0.0 0.00 0.00 0.00 31 1019.9
20260510161005 67 298 0.0 5.0 0.00 0.00 0.00 34 1019.9
20260510160504 66 170 0.0 3.0 0.00 0.00 0.00 34 1020.0
20260510160004 65 147 0.0 0.0 0.00 0.00 0.00 37 1020.0
20260510155505 65 147 0.0 0.0 0.00 0.00 0.00 37 1020.0
20260510154505 63 147 0.0 0.0 0.00 0.00 0.00 43 1020.0
20260510154005 63 147 0.0 0.0 0.00 0.00 0.00 44 1020.0
20260510153505 63 147 0.0 0.0 0.00 0.00 0.00 45 1020.0
20260510153005 62 147 0.0 0.0 0.00 0.00 0.00 45 1020.2
20260510152004 61 147 0.0 0.0 0.00 0.00 0.00 45 1020.1
20260510151504 61 147 0.0 0.0 0.00 0.00 0.00 47 1020.2
20260510150504 60 147 0.0 0.0 0.00 0.00 0.00 48 1020.3
20260510150004 59 147 0.0 0.0 0.00 0.00 0.00 50 1020.3
20260510145505 59 147 0.0 0.0 0.00 0.00 0.00 46 1020.3
20260510145005 58 147 0.0 0.0 0.00 0.00 0.00 49 1020.2
20260510144505 57 147 0.0 0.0 0.00 0.00 0.00 50 1020.3
20260510144005 56 147 0.0 0.0 0.00 0.00 0.00 53 1020.3
20260510143505 55 147 0.0 0.0 0.00 0.00 0.00 54 1020.2
20260510143005 54 147 0.0 0.0 0.00 0.00 0.00 53 1020.3
20260510142505 53 147 0.0 0.0 0.00 0.00 0.00 52 1020.3
20260510142005 52 147 0.0 0.0 0.00 0.00 0.00 54 1020.3
20260510141505 51 147 0.0 0.0 0.00 0.00 0.00 56 1020.3
20260510141006 50 147 0.0 0.0 0.00 0.00 0.00 58 1020.2
20260510140504 50 147 0.0 0.0 0.00 0.00 0.00 57 1020.0
20260510140005 49 147 0.0 0.0 0.00 0.00 0.00 58 1020.0
20260510135504 48 147 0.0 0.0 0.00 0.00 0.00 58 1019.9
20260510134505 47 147 0.0 0.0 0.00 0.00 0.00 59 1019.9
20260510134004 46 147 0.0 0.0 0.00 0.00 0.00 60 1019.8
20260510133505 46 147 0.0 0.0 0.00 0.00 0.00 59 1019.8
20260510132504 45 147 0.0 0.0 0.00 0.00 0.00 59 1019.8
20260510132005 45 147 0.0 0.0 0.00 0.00 0.00 58 1019.7
20260510131506 44 147 0.0 0.0 0.00 0.00 0.00 59 1019.7
20260510131005 45 147 0.0 0.0 0.00 0.00 0.00 59 1019.8
20260510130505 45 147 0.0 0.0 0.00 0.00 0.00 60 1019.7
20260510130005 44 147 0.0 0.0 0.00 0.00 0.00 58 1019.7
20260510125005 44 147 0.0 0.0 0.00 0.00 0.00 59 1019.8
20260510124505 44 147 0.0 0.0 0.00 0.00 0.00 59 1019.8
20260510124004 44 147 0.0 0.0 0.00 0.00 0.00 60 1019.8
20260510123505 45 147 0.0 0.0 0.00 0.00 0.00 59 1019.8
20260510123004 45 147 0.0 0.0 0.00 0.00 0.00 58 1019.8
20260510122505 45 147 0.0 0.0 0.00 0.00 0.00 59 1019.8
20260510122004 45 147 0.0 0.0 0.00 0.00 0.00 58 1019.8
20260510121505 45 147 0.0 0.0 0.00 0.00 0.00 58 1019.9
20260510121005 46 147 0.0 0.0 0.00 0.00 0.00 57 1019.8
20260510120005 46 147 0.0 0.0 0.00 0.00 0.00 57 1019.8
20260510115505 46 147 0.0 0.0 0.00 0.00 0.00 57 1019.9
20260510115005 46 147 0.0 0.0 0.00 0.00 0.00 57 1019.9
20260510114505 46 147 0.0 0.0 0.00 0.00 0.00 54 1019.9
20260510114005 46 147 0.0 0.0 0.00 0.00 0.00 54 1019.8
20260510113505 46 147 0.0 0.0 0.00 0.00 0.00 56 1019.9
20260510113005 47 147 0.0 0.0 0.00 0.00 0.00 57 1019.9
20260510112505 46 147 0.0 0.0 0.00 0.00 0.00 56 1019.9
20260510112004 46 147 0.0 0.0 0.00 0.00 0.00 55 1019.9
20260510111004 47 147 0.0 0.0 0.00 0.00 0.00 55 1019.9
20260510110504 46 147 0.0 0.0 0.00 0.00 0.00 54 1019.9
20260510110005 46 147 0.0 0.0 0.00 0.00 0.00 53 1019.9
20260510105505 46 147 0.0 0.0 0.00 0.00 0.00 58 1019.8
20260510105005 46 147 0.0 0.0 0.00 0.00 0.00 58 1019.9
20260510104504 46 147 0.0 0.0 0.00 0.00 0.00 59 1019.8
20260510104005 47 147 0.0 0.0 0.00 0.00 0.00 60 1019.8
20260510103004 47 147 0.0 0.0 0.00 0.00 0.00 57 1019.8
20260510102505 47 147 0.0 0.0 0.00 0.00 0.00 56 1019.8
20260510102004 47 147 0.0 0.0 0.00 0.00 0.00 54 1019.8
20260510101005 47 147 0.0 0.0 0.00 0.00 0.00 53 1019.8
20260510100505 46 147 0.0 0.0 0.00 0.00 0.00 55 1019.8
20260510100005 46 147 0.0 0.0 0.00 0.00 0.00 56 1019.8
20260510095505 46 147 0.0 0.0 0.00 0.00 0.00 57 1019.8
20260510094505 47 147 0.0 0.0 0.00 0.00 0.00 57 1019.7
20260510094004 47 147 0.0 0.0 0.00 0.00 0.00 56 1019.7
20260510093005 47 147 0.0 0.0 0.00 0.00 0.00 53 1019.6
20260510092504 48 147 0.0 0.0 0.00 0.00 0.00 54 1019.6
20260510091505 48 147 0.0 0.0 0.00 0.00 0.00 55 1019.6
20260510091004 48 147 0.0 0.0 0.00 0.00 0.00 55 1019.6
20260510090505 48 147 0.0 0.0 0.00 0.00 0.00 56 1019.6
20260510090005 48 147 0.0 0.0 0.00 0.00 0.00 56 1019.6
20260510085005 48 147 0.0 0.0 0.00 0.00 0.00 55 1019.6
20260510084505 48 147 0.0 0.0 0.00 0.00 0.00 54 1019.6
20260510084005 48 147 0.0 0.0 0.00 0.00 0.00 53 1019.6
20260510083505 49 147 0.0 0.0 0.00 0.00 0.00 52 1019.7
20260510083005 49 147 0.0 0.0 0.00 0.00 0.00 54 1019.6
20260510082505 49 147 0.0 0.0 0.00 0.00 0.00 53 1019.6
20260510082005 49 147 0.0 0.0 0.00 0.00 0.00 52 1019.5
20260510081505 50 147 0.0 0.0 0.00 0.00 0.00 52 1019.5
20260510081005 50 147 0.0 0.0 0.00 0.00 0.00 51 1019.6
20260510080506 50 147 0.0 0.0 0.00 0.00 0.00 49 1019.6
20260510080005 50 147 0.0 0.0 0.00 0.00 0.00 50 1019.6
20260510075005 51 147 0.0 0.0 0.00 0.00 0.00 50 1019.6
20260510074505 51 147 0.0 0.0 0.00 0.00 0.00 48 1019.6
20260510074004 51 147 0.0 0.0 0.00 0.00 0.00 47 1019.6
20260510073505 51 147 0.0 0.0 0.00 0.00 0.00 50 1019.7
20260510073004 51 147 0.0 0.0 0.00 0.00 0.00 48 1019.7
20260510072505 51 147 0.0 0.0 0.00 0.00 0.00 49 1019.7
20260510072005 52 147 0.0 0.0 0.00 0.00 0.00 48 1019.6
20260510071005 52 147 0.0 0.0 0.00 0.00 0.00 48 1019.6
20260510070504 52 147 0.0 0.0 0.00 0.00 0.00 48 1019.6
20260510065505 53 147 0.0 0.0 0.00 0.00 0.00 44 1019.4
20260510065005 53 147 0.0 0.0 0.00 0.00 0.00 44 1019.3
20260510064504 53 147 0.0 0.0 0.00 0.00 0.00 44 1019.2
20260510064004 53 147 0.0 0.0 0.00 0.00 0.00 44 1019.2
20260510063505 53 147 0.0 0.0 0.00 0.00 0.00 43 1019.2
20260510063005 53 147 0.0 0.0 0.00 0.00 0.00 45 1019.2
20260510062504 53 147 0.0 0.0 0.00 0.00 0.00 43 1019.2
20260510061005 54 147 0.0 0.0 0.00 0.00 0.00 44 1019.2
20260510060505 54 147 0.0 0.0 0.00 0.00 0.00 42 1019.2
20260510060005 54 147 0.0 0.0 0.00 0.00 0.00 43 1019.2
20260510055504 54 147 0.0 0.0 0.00 0.00 0.00 42 1019.3
20260510055004 55 147 0.0 0.0 0.00 0.00 0.00 42 1019.3
20260510054505 55 147 0.0 0.0 0.00 0.00 0.00 43 1019.3
20260510054005 55 147 0.0 1.0 0.00 0.00 0.00 41 1019.4
20260510052505 55 335 0.0 0.0 0.00 0.00 0.00 40 1019.4
20260510052006 56 335 0.0 0.0 0.00 0.00 0.00 41 1019.4
20260510051005 56 335 0.0 0.0 0.00 0.00 0.00 40 1019.3
20260510050504 57 335 0.0 0.0 0.00 0.00 0.00 39 1019.3
20260510045505 57 335 0.0 0.0 0.00 0.00 0.00 38 1019.3
20260510045004 58 335 0.0 0.0 0.00 0.00 0.00 37 1019.3
20260510044504 58 335 0.0 0.0 0.00 0.00 0.00 37 1019.2
20260510043005 59 335 0.0 0.0 0.00 0.00 0.00 36 1019.0
20260510042504 60 335 0.0 0.0 0.00 0.00 0.00 36 1019.0
20260510042005 60 335 0.0 0.0 0.00 0.00 0.00 37 1019.0
20260510041504 60 335 0.0 0.0 0.00 0.00 0.00 35 1018.8
20260510041005 61 335 0.0 0.0 0.00 0.00 0.00 34 1018.8
20260510040505 61 335 0.0 0.0 0.00 0.00 0.00 33 1018.7
20260510040004 62 335 0.0 0.0 0.00 0.00 0.00 31 1018.6
20260510035505 62 335 0.0 0.0 0.00 0.00 0.00 32 1018.5
20260510034504 63 335 0.0 0.0 0.00 0.00 0.00 31 1018.4
20260510034005 64 335 0.0 0.0 0.00 0.00 0.00 32 1018.3
20260510033505 64 335 0.0 0.0 0.00 0.00 0.00 31 1018.2
20260510033005 65 335 0.0 0.0 0.00 0.00 0.00 34 1018.2
20260510032505 66 335 0.0 0.0 0.00 0.00 0.00 31 1018.1
20260510032005 66 335 0.0 0.0 0.00 0.00 0.00 30 1018.1
20260510031506 66 335 0.0 0.0 0.00 0.00 0.00 29 1018.0
20260510031005 67 335 0.0 0.0 0.00 0.00 0.00 29 1018.0
20260510030505 68 335 0.0 0.0 0.00 0.00 0.00 27 1017.9
20260510030004 68 335 0.0 0.0 0.00 0.00 0.00 28 1017.9
20260510024504 70 335 0.0 0.0 0.00 0.00 0.00 28 1017.6
20260510024005 71 335 0.0 0.0 0.00 0.00 0.00 27 1017.6
20260510023505 72 335 0.0 0.0 0.00 0.00 0.00 26 1017.6
20260510023004 72 335 0.0 0.0 0.00 0.00 0.00 25 1017.5
20260510022505 73 335 0.0 0.0 0.00 0.00 0.00 23 1017.5
20260510022004 74 335 0.0 0.0 0.00 0.00 0.00 26 1017.5
20260510021504 74 335 0.0 2.0 0.00 0.00 0.00 25 1017.5
20260510021005 75 332 4.0 5.0 0.00 0.00 0.00 26 1017.4
20260510020505 76 343 1.0 3.0 0.00 0.00 0.00 26 1017.4
20260510020005 77 333 1.0 6.0 0.00 0.00 0.00 23 1017.4
20260510015505 78 283 0.0 5.0 0.00 0.00 0.00 18 1017.4
20260510014505 78 302 1.0 2.0 0.00 0.00 0.00 14 1017.4
20260510014005 78 302 0.0 0.0 0.00 0.00 0.00 15 1017.4
20260510013504 78 302 0.0 3.0 0.00 0.00 0.00 14 1017.4
20260510013005 79 277 1.0 5.0 0.00 0.00 0.00 15 1017.4
20260510012505 79 305 0.0 2.0 0.00 0.00 0.00 14 1017.4
20260510012004 79 261 2.0 5.0 0.00 0.00 0.00 14 1017.5
20260510011505 79 306 2.0 5.0 0.00 0.00 0.00 14 1017.5
20260510011005 79 303 1.0 7.0 0.00 0.00 0.00 15 1017.6
20260510010505 80 299 1.0 3.0 0.00 0.00 0.00 15 1017.5
20260510010005 80 289 2.0 5.0 0.00 0.00 0.00 13 1017.5
20260510005504 80 303 2.0 5.0 0.00 0.00 0.00 13 1017.6
20260510005004 80 311 2.0 5.0 0.00 0.00 0.00 13 1017.6
20260510004505 80 313 0.0 2.0 0.00 0.00 0.00 13 1017.6
20260510004004 80 280 1.0 3.0 0.00 0.00 0.00 12 1017.6
20260510003505 80 210 0.0 3.0 0.00 0.00 0.00 13 1017.6
20260510003005 80 333 3.0 6.0 0.00 0.00 0.00 13 1017.6
20260510002505 80 315 3.0 5.0 0.00 0.00 0.00 13 1017.6
20260510001504 80 300 2.0 5.0 0.00 0.00 0.00 14 1017.8
20260510001005 79 330 3.0 6.0 0.00 0.00 0.00 13 1017.8
20260510000004 79 300 4.0 7.0 0.00 0.00 0.00 13 1017.9
20260509235504 79 299 3.0 6.0 0.00 0.00 0.00 15 1017.9
20260509234504 79 295 3.0 7.0 0.00 0.00 0.00 15 1018.0